Wind_Speed
36 37 38 39 41 42 43 43 43 43 44 45 47 48 48 49 50 51 51 52 52 53 53 53 53 53 53 53 52 51 51 51 51 50 49 49 49 49 49 50 51 52 51
36 37 38 40 40 41 42 43 43 44 45 46 47 48 49 49 49 50 51 51 52 52 52 52 52 52 52 53 52 51 51 50 50 49 49 49 48 49 49 50 50 50 50
36 37 38 39 40 41 42 43 43 44 46 46 46 46 48 49 49 48 49 49 51 51 51 51 52 52 52 51 51 51 51 51 50 49 49 48 48 49 50 50 50 50 50
35 35 36 38 40 40 41 42 42 44 45 46 46 46 47 48 48 48 48 48 48 48 49 49 50 50 50 50 50 50 50 51 50 50 49 49 49 48 49 49 49 49 49
35 35 36 37 38 39 39 40 42 43 44 44 45 45 46 47 47 47 48 47 47 47 48 48 48 49 49 50 50 50 50 50 50 50 50 49 48 48 49 48 48 47 47
32 34 34 34 35 37 37 39 40 41 41 43 44 44 43 43 43 43 44 45 45 46 46 46 46 47 47 48 49 48 48 48 48 49 49 48 48 48 48 48 48 47 47
31 31 31 31 33 34 35 36 37 37 38 39 39 39 40 40 39 39 40 41 42 42 43 44 44 44 45 45 46 46 46 46 47 47 47 47 48 47 48 48 48 48 47
28 29 29 30 30 30 31 33 33 34 34 34 34 34 35 35 36 36 37 37 38 39 40 41 42 42 42 42 43 43 44 44 44 45 46 46 45 45 45 47 47 46 46
26 26 26 27 27 28 28 29 29 29 30 30 30 30 31 31 31 32 33 34 34 35 36 37 37 38 39 41 41 41 41 40 41 42 42 42 42 42 43 44 43 43 43
25 25 25 25 25 26 27 27 27 27 27 26 27 27 26 27 28 29 30 31 32 33 33 34 34 34 35 36 37 37 37 37 37 38 38 39 39 38 39 39 39 39 39
24 24 24 24 25 25 25 25 25 25 25 25 24 24 25 25 26 27 28 28 29 29 30 31 31 32 32 33 33 34 35 35 34 34 34 35 36 36 36 36 36 36 36
24 24 24 23 23 24 24 24 23 23 23 23 23 23 23 24 25 25 25 26 26 27 27 28 29 29 30 30 31 32 32 32 33 32 32 32 32 33 33 32 32 32 32
23 23 23 23 23 23 23 23 23 22 22 22 22 22 23 23 23 23 23 23 22 23 24 25 26 27 28 29 29 29 30 30 31 31 30 30 29 29 29 29 29 29 29
21 22 22 22 22 22 22 22 22 22 21 20 21 21 21 21 21 21 20 20 21 22 23 23 24 24 25 26 27 27 28 28 27 28 28 27 27 27 26 26 26 25 25
21 21 21 21 21 21 21 20 20 20 20 20 20 20 20 20 19 19 19 19 19 20 20 21 21 21 22 22 23 23 23 23 23 24 25 25 25 24 24 24 23 22 21
20 20 20 20 20 21 21 20 20 20 20 19 19 19 19 19 19 18 18 17 18 18 18 19 19 19 19 19 20 20 20 20 20 21 21 21 22 22 22 21 21 20 19
20 20 20 21 21 21 21 20 20 20 19 19 19 18 17 17 17 17 17 17 17 17 17 17 17 17 17 18 18 18 19 19 19 19 18 18 18 18 17 17 17 17 17
20 20 20 20 20 20 20 20 19 19 19 18 18 18 17 17 17 17 17 17 17 17 16 16 15 16 16 16 16 16 17 17 18 17 17 16 16 15 14 14 14 14 14
18 18 18 18 18 18 18 18 18 17 17 17 17 17 17 17 17 17 17 17 16 16 15 15 15 15 15 15 15 15 15 15 15 14 15 15 15 14 14 14 13 13 13
16 15 16 16 17 17 16 16 16 16 16 16 16 16 17 17 16 16 16 16 15 15 15 15 14 14 14 14 14 14 14 14 13 13 14 14 14 14 13 13 13 13 13
15 15 15 15 15 16 16 16 16 16 16 16 16 15 15 15 15 15 15 15 14 14 14 13 13 14 13 13 13 12 12 12 12 12 12 12 12 12 12 12 12 12 12
15 15 15 16 15 15 15 15 16 16 15 15 15 15 14 14 14 14 14 14 14 14 14 13 13 12 12 12 12 11 11 11 11 11 11 11 11 11 11 12 11 11 11
15 15 15 15 14 15 15 15 14 14 14 14 14 14 14 14 14 14 14 14 14 13 13 13 12 11 11 12 11 11 11 11 11 11 11 10 10 10 10 10 10 10 10
15 15 14 14 14 14 14 13 13 13 13 13 13 13 13 13 13 14 14 13 13 12 12 11 11 11 11 11 11 10 10 11 11 11 10 10 10 10 10 11 11 11 11
14 13 13 13 13 12 12 12 12 12 12 12 12 12 13 13 13 13 13 12 12 11 11 11 11 11 11 11 11 10 10 10 10 10 10 10 10 10 10 10 10 10 10
13 13 13 13 13 12 12 11 11 11 11 12 12 12 13 12 12 12 12 12 11 11 11 11 11 11 11 10 10 10 10 9 9 9 8 9 9 9 9 9 9 9 9
Wind_Direction
262 263 263 264 264 264 265 265 265 265 265 265 265 264 264 264 264 263 263 262 262 262 263 264 265 266 266 267 267 268 269 270 270 270 271 271 272 273 274 274 275 275 276
263 264 264 264 265 265 266 267 267 267 266 266 266 266 266 266 265 264 263 262 261 262 263 264 265 265 266 266 266 267 268 270 270 270 270 271 272 273 274 275 275 276 276
266 266 265 265 266 267 268 267 269 269 268 268 268 268 267 266 266 265 263 263 262 262 263 264 265 265 265 266 267 267 268 269 270 270 270 271 272 274 274 275 276 276 277
266 267 267 267 267 269 270 270 269 269 269 269 269 268 268 267 266 264 263 262 262 262 264 264 264 264 265 266 267 267 267 268 268 270 271 272 273 273 274 275 276 276 277
269 270 271 270 269 269 270 271 271 271 270 270 269 269 268 267 266 264 263 262 262 263 263 264 264 264 264 265 267 268 268 268 269 270 271 271 272 273 274 274 275 275 276
273 273 274 273 272 271 271 272 272 272 272 271 270 269 269 267 267 265 264 263 263 263 263 263 264 265 265 265 266 266 267 268 269 270 270 271 271 273 273 273 274 275 276
276 276 275 275 275 273 272 273 274 274 273 272 271 269 268 267 267 265 265 264 263 263 264 264 264 264 265 266 265 265 266 267 269 271 271 272 273 273 273 274 275 276 276
278 278 276 278 277 276 276 277 277 276 275 273 272 270 269 268 268 267 266 265 264 263 264 264 265 265 266 266 266 266 267 267 269 271 271 272 273 274 274 275 276 275 275
278 280 281 280 279 279 280 280 280 279 277 275 273 272 271 270 269 267 266 265 265 265 265 265 265 266 267 267 267 267 267 268 269 271 272 273 274 274 275 276 274 274 275
279 280 281 281 282 281 281 281 281 280 277 275 275 273 272 271 269 268 269 268 267 266 265 265 265 266 267 268 267 267 268 268 270 271 271 271 272 273 274 275 275 275 275
279 279 279 281 283 283 283 283 282 280 278 276 275 275 274 273 273 272 272 270 268 267 267 266 266 267 268 267 267 268 269 269 270 270 270 272 272 273 273 274 275 275 276
277 279 279 280 283 285 285 285 283 281 281 279 278 277 276 275 274 274 273 271 270 269 269 268 268 268 268 268 268 269 269 270 270 270 271 272 273 274 274 274 274 275 276
279 279 280 280 281 284 285 285 283 281 281 279 278 278 278 277 275 275 274 272 271 271 272 272 271 270 269 270 269 269 269 270 270 269 270 271 272 273 273 273 274 275 274
282 281 281 281 282 284 285 284 283 282 280 279 278 278 278 277 275 275 273 273 272 273 274 274 274 274 273 272 271 269 270 270 270 270 270 271 271 271 272 274 275 275 275
282 282 282 281 282 283 283 282 282 281 280 279 280 281 279 277 275 273 272 273 275 275 276 277 277 279 278 275 272 271 270 270 271 272 272 273 272 270 271 273 273 272 273
283 282 282 282 283 283 282 281 281 280 279 279 280 281 279 276 275 274 274 274 275 276 277 280 281 282 282 278 275 272 270 271 273 274 274 273 271 270 270 272 272 272 272
283 282 281 282 282 283 282 281 280 279 279 280 281 279 278 276 274 275 276 276 277 279 280 281 280 280 281 281 277 272 269 269 272 273 271 271 271 271 271 271 271 271 272
282 283 283 282 281 282 281 280 278 277 277 279 279 278 277 276 275 276 276 277 278 279 279 279 280 281 281 280 277 273 271 271 273 271 267 267 268 269 270 270 271 272 273
283 283 283 285 284 283 281 279 278 277 278 279 279 278 277 276 276 275 276 276 278 277 278 279 281 281 281 281 279 274 271 271 271 267 265 266 267 266 267 269 271 274 275
283 284 285 287 286 284 282 280 279 278 279 279 280 279 278 276 274 275 274 274 275 276 278 279 279 279 281 282 281 277 274 271 266 265 266 267 268 269 267 267 269 272 274
284 285 286 288 288 286 282 280 280 281 281 281 282 281 279 277 275 274 273 274 275 276 278 278 277 278 280 283 282 278 272 266 263 265 269 270 270 270 268 267 268 271 273
285 286 287 289 288 286 284 281 280 280 280 281 280 279 278 275 274 274 274 275 273 273 275 277 279 278 275 277 279 275 268 263 263 265 268 270 269 269 268 267 267 269 270
285 287 289 290 289 288 287 283 281 281 281 282 281 279 276 273 272 273 274 275 272 271 271 272 273 274 274 275 276 274 269 267 266 266 269 269 268 269 268 268 268 268 270
284 285 286 288 289 289 288 285 282 281 281 281 280 280 277 275 274 273 273 273 271 268 266 266 269 273 276 277 275 273 270 268 268 269 269 267 267 269 270 268 267 269 270
283 284 285 286 287 288 287 286 285 283 281 280 281 281 280 278 277 274 273 271 268 264 263 264 267 271 276 276 273 270 269 268 269 269 267 265 266 269 270 269 268 268 267
281 283 284 284 285 286 285 284 284 284 282 282 282 282 281 279 277 275 273 270 266 265 266 267 267 269 272 272 270 266 265 265 265 266 266 266 268 269 269 269 268 266 265
Height
5617 5617 5618 5618 5618 5618 5618 5619 5619 5619 5619 5620 5620 5620 5620 5621 5621 5622 5623 5625 5626 5627 5628 5629 5630 5630 5631 5631 5631 5632 5632 5631 5632 5632 5631 5630 5628 5627 5626 5625 5624 5622 5621
5607 5607 5606 5607 5606 5606 5606 5606 5606 5607 5607 5607 5606 5607 5607 5607 5607 5608 5609 5610 5612 5613 5614 5615 5616 5616 5617 5617 5617 5618 5618 5618 5618 5618 5617 5616 5615 5614 5613 5612 5610 5609 5608
5596 5596 5595 5595 5595 5594 5594 5593 5593 5593 5593 5593 5592 5592 5592 5592 5593 5594 5595 5596 5597 5599 5600 5601 5602 5602 5603 5603 5604 5604 5604 5604 5604 5604 5604 5603 5602 5601 5599 5598 5597 5595 5594
5585 5585 5584 5584 5583 5582 5582 5581 5580 5580 5579 5579 5579 5578 5578 5578 5579 5580 5581 5582 5584 5585 5586 5587 5588 5589 5590 5590 5590 5590 5590 5590 5590 5590 5590 5589 5588 5587 5586 5585 5584 5582 5581
5574 5574 5573 5572 5572 5571 5570 5569 5568 5567 5567 5566 5566 5565 5564 5564 5565 5566 5567 5569 5570 5571 5572 5573 5574 5575 5576 5576 5576 5577 5577 5577 5577 5577 5576 5576 5575 5574 5573 5572 5570 5569 5567
5564 5564 5563 5562 5561 5560 5559 5558 5556 5555 5554 5554 5553 5552 5552 5552 5552 5553 5554 5555 5556 5558 5559 5560 5561 5561 5562 5563 5563 5564 5564 5564 5563 5563 5563 5563 5562 5560 5559 5558 5557 5556 5556
5555 5554 5553 5552 5550 5549 5548 5547 5545 5544 5543 5542 5541 5541 5540 5541 5541 5541 5542 5543 5544 5545 5546 5547 5548 5549 5549 5550 5550 5550 5551 5550 5550 5550 5550 5549 5549 5548 5546 5545 5544 5543 5542
5547 5546 5544 5543 5541 5539 5538 5536 5535 5534 5533 5532 5531 5530 5530 5530 5530 5531 5531 5532 5532 5533 5534 5535 5536 5536 5537 5537 5538 5538 5538 5538 5538 5538 5538 5537 5535 5534 5533 5532 5531 5530 5529
5539 5538 5536 5534 5533 5531 5529 5528 5526 5525 5524 5523 5522 5521 5521 5520 5520 5521 5521 5522 5522 5523 5524 5524 5524 5525 5526 5526 5526 5526 5527 5526 5525 5525 5525 5524 5523 5522 5520 5519 5519 5518 5517
5531 5530 5529 5527 5525 5524 5522 5520 5519 5517 5516 5514 5513 5512 5512 5512 5512 5512 5512 5513 5513 5514 5514 5514 5515 5515 5515 5515 5515 5515 5515 5515 5515 5514 5514 5513 5512 5510 5509 5508 5507 5506 5505
5524 5523 5521 5520 5518 5516 5515 5513 5511 5509 5508 5507 5506 5505 5504 5504 5504 5504 5504 5504 5505 5505 5505 5505 5505 5505 5505 5505 5505 5505 5505 5504 5504 5504 5503 5502 5501 5500 5499 5498 5497 5495 5494
5517 5516 5515 5513 5512 5510 5508 5506 5504 5503 5501 5500 5499 5498 5497 5497 5497 5497 5496 5496 5496 5496 5496 5496 5496 5496 5496 5496 5495 5495 5495 5494 5494 5494 5493 5492 5491 5490 5489 5488 5487 5486 5485
5510 5509 5507 5506 5505 5503 5502 5500 5498 5496 5495 5494 5493 5492 5491 5490 5490 5490 5489 5489 5489 5489 5489 5488 5488 5487 5487 5487 5487 5486 5486 5485 5485 5485 5484 5483 5482 5481 5481 5480 5479 5477 5476
5503 5502 5501 5499 5498 5497 5495 5493 5492 5491 5489 5488 5487 5486 5485 5484 5484 5483 5483 5482 5482 5482 5482 5481 5480 5479 5479 5478 5478 5478 5477 5477 5476 5476 5475 5475 5474 5473 5472 5472 5471 5470 5468
5497 5496 5494 5493 5491 5490 5489 5488 5486 5485 5484 5483 5482 5481 5480 5479 5478 5477 5477 5477 5476 5476 5475 5474 5473 5473 5472 5471 5470 5470 5469 5469 5469 5468 5467 5467 5466 5466 5465 5465 5464 5463 5462
5490 5489 5488 5487 5485 5484 5483 5482 5480 5479 5478 5477 5476 5475 5474 5473 5473 5472 5471 5471 5470 5470 5469 5468 5467 5466 5465 5464 5464 5463 5463 5463 5462 5462 5461 5460 5460 5459 5459 5458 5458 5457 5456
5484 5483 5482 5481 5480 5478 5477 5476 5475 5474 5472 5471 5470 5469 5469 5468 5467 5467 5466 5465 5465 5464 5463 5462 5461 5460 5460 5459 5458 5457 5457 5457 5456 5456 5455 5455 5454 5454 5453 5453 5452 5452 5451
5478 5477 5476 5475 5473 5472 5471 5470 5469 5468 5467 5466 5465 5464 5463 5462 5462 5461 5461 5460 5459 5458 5458 5457 5456 5455 5454 5453 5452 5452 5451 5451 5451 5451 5450 5450 5450 5449 5449 5448 5448 5447 5447
5472 5471 5470 5468 5467 5466 5465 5464 5463 5462 5461 5461 5460 5459 5458 5457 5456 5456 5455 5455 5454 5453 5453 5452 5451 5450 5449 5448 5448 5447 5447 5446 5446 5446 5446 5445 5445 5445 5445 5444 5444 5443 5442
5467 5465 5464 5463 5462 5461 5460 5459 5458 5457 5456 5455 5454 5454 5453 5452 5451 5450 5450 5449 5449 5448 5448 5447 5446 5446 5445 5444 5443 5443 5442 5442 5442 5442 5442 5441 5441 5441 5440 5440 5440 5439 5438
5462 5460 5459 5458 5457 5455 5454 5453 5453 5452 5451 5450 5449 5448 5447 5446 5446 5445 5445 5444 5444 5443 5443 5442 5442 5441 5441 5440 5439 5439 5438 5438 5438 5438 5438 5438 5437 5437 5436 5436 5436 5435 5435
5457 5456 5454 5453 5452 5450 5449 5448 5447 5446 5446 5445 5444 5443 5442 5442 5441 5441 5440 5440 5439 5439 5438 5438 5438 5437 5436 5436 5436 5435 5435 5435 5435 5435 5434 5434 5434 5433 5433 5433 5432 5432 5431
5452 5451 5450 5448 5447 5445 5444 5443 5442 5441 5441 5440 5439 5438 5438 5437 5437 5436 5436 5435 5434 5434 5433 5433 5433 5433 5433 5432 5432 5432 5432 5431 5431 5431 5431 5431 5430 5430 5430 5429 5429 5429 5428
5447 5446 5445 5444 5442 5441 5440 5439 5438 5437 5436 5435 5435 5434 5433 5433 5432 5432 5431 5430 5430 5429 5429 5429 5429 5429 5429 5428 5428 5428 5428 5428 5428 5428 5427 5427 5427 5427 5426 5426 5426 5425 5425
5442 5441 5440 5439 5438 5437 5436 5435 5434 5433 5432 5431 5430 5430 5429 5428 5428 5427 5426 5426 5425 5425 5425 5425 5425 5425 5425 5425 5424 5424 5424 5424 5424 5424 5424 5424 5423 5423 5423 5422 5422 5422 5421
5438 5437 5436 5435 5434 5432 5431 5431 5430 5429 5428 5427 5426 5426 5425 5424 5423 5423 5422 5422 5422 5421 5421 5421 5421 5421 5421 5421 5421 5421 5421 5421 5421 5420 5420 5420 5420 5420 5419 5419 5419 5418 5418